Year,Month,Day,Hour,Minute,Value (Times are PST for temperature in C)
2017,01,23,09,53,4.60
2017,01,23,09,54,4.60
2017,01,23,09,55,4.70
2017,01,23,09,56,4.70
2017,01,23,09,57,4.70
2017,01,23,09,58,4.80
2017,01,23,09,59,4.80
2017,01,23,10,00,4.80
2017,01,23,10,01,4.90
2017,01,23,10,02,4.90
2017,01,23,10,03,5.00
2017,01,23,10,04,5.10
2017,01,23,10,05,5.10
2017,01,23,10,06,5.10
2017,01,23,10,07,5.20
2017,01,23,10,08,5.20
2017,01,23,10,09,5.20
2017,01,23,10,10,5.30
2017,01,23,10,11,5.30
2017,01,23,10,12,5.30
2017,01,23,10,13,5.30
2017,01,23,10,14,5.40
2017,01,23,10,15,5.40
2017,01,23,10,16,5.40
2017,01,23,10,17,5.40
2017,01,23,10,18,5.50
2017,01,23,10,19,5.50
2017,01,23,10,20,5.50
2017,01,23,10,21,5.60
2017,01,23,10,22,5.60
2017,01,23,10,23,5.60
2017,01,23,10,24,5.70
2017,01,23,10,25,5.70
2017,01,23,10,26,5.70
2017,01,23,10,27,5.70
2017,01,23,10,28,5.80
2017,01,23,10,29,5.80
2017,01,23,10,30,5.80
2017,01,23,10,31,5.80
2017,01,23,10,32,5.90
2017,01,23,10,33,5.90
2017,01,23,10,34,5.90
2017,01,23,10,35,6.00
2017,01,23,10,36,6.00
2017,01,23,10,37,6.00
2017,01,23,10,38,6.00
2017,01,23,10,39,6.10
2017,01,23,10,40,6.10
2017,01,23,10,41,6.10
2017,01,23,10,42,6.20
2017,01,23,10,43,6.20
2017,01,23,10,44,6.20
2017,01,23,10,45,6.20
2017,01,23,10,46,6.30
2017,01,23,10,47,6.30
2017,01,23,10,48,6.30
2017,01,23,10,49,6.40
2017,01,23,10,50,6.40
2017,01,23,10,51,6.40
2017,01,23,10,52,6.40
2017,01,23,10,53,6.50
2017,01,23,10,54,6.50
2017,01,23,10,55,6.60
2017,01,23,10,56,6.60
2017,01,23,10,57,6.60
2017,01,23,10,58,6.70
2017,01,23,10,59,6.70
2017,01,23,11,00,6.80
2017,01,23,11,01,6.90
2017,01,23,11,02,7.00
2017,01,23,11,03,7.00
2017,01,23,11,04,7.10
2017,01,23,11,05,7.10
2017,01,23,11,06,7.10
2017,01,23,11,07,7.10
2017,01,23,11,08,7.20
2017,01,23,11,09,7.20
2017,01,23,11,10,7.30
2017,01,23,11,11,7.30
2017,01,23,11,12,7.40
2017,01,23,11,13,7.40
2017,01,23,11,14,7.50
2017,01,23,11,15,7.50
2017,01,23,11,16,7.50
2017,01,23,11,17,7.60
2017,01,23,11,18,7.60
2017,01,23,11,19,7.70
2017,01,23,11,20,7.70
2017,01,23,11,21,7.70
2017,01,23,11,22,7.70
2017,01,23,11,23,7.70
2017,01,23,11,24,7.70
2017,01,23,11,25,7.70
2017,01,23,11,26,7.70
2017,01,23,11,27,7.70
2017,01,23,11,28,7.70
2017,01,23,11,29,7.70
2017,01,23,11,30,7.70
2017,01,23,11,31,7.70
2017,01,23,11,32,7.80
2017,01,23,11,33,7.80
2017,01,23,11,34,7.80
2017,01,23,11,35,7.80
2017,01,23,11,36,7.80
2017,01,23,11,37,7.80
2017,01,23,11,38,7.80
2017,01,23,11,39,7.80
2017,01,23,11,40,7.90
2017,01,23,11,41,7.90
2017,01,23,11,42,7.90
2017,01,23,11,43,8.00
2017,01,23,11,44,8.10
2017,01,23,11,45,8.10
2017,01,23,11,46,8.10
2017,01,23,11,47,8.10
2017,01,23,11,48,8.20
2017,01,23,11,49,8.20
2017,01,23,11,50,8.20
2017,01,23,11,51,8.20
2017,01,23,11,52,8.20
2017,01,23,11,53,8.10
2017,01,23,11,54,8.10
2017,01,23,11,55,8.10
2017,01,23,11,56,8.10
2017,01,23,11,57,8.10
2017,01,23,11,58,8.10
2017,01,23,11,59,8.10
2017,01,23,12,00,8.00
2017,01,23,12,01,8.00
2017,01,23,12,02,8.00
2017,01,23,12,03,8.00
2017,01,23,12,04,8.00
2017,01,23,12,05,8.00
2017,01,23,12,06,8.10
2017,01,23,12,07,8.10
2017,01,23,12,08,8.20
2017,01,23,12,09,8.20
2017,01,23,12,10,8.20
2017,01,23,12,11,8.20
2017,01,23,12,12,8.20
2017,01,23,12,13,8.20
2017,01,23,12,14,8.30
2017,01,23,12,15,8.30
2017,01,23,12,16,8.30
2017,01,23,12,17,8.20
2017,01,23,12,18,8.20
2017,01,23,12,19,8.20
2017,01,23,12,20,8.30
2017,01,23,12,21,8.30
2017,01,23,12,22,8.30
2017,01,23,12,23,8.30
2017,01,23,12,24,8.20
2017,01,23,12,25,8.20
2017,01,23,12,26,8.20
2017,01,23,12,27,8.30
2017,01,23,12,28,8.30
2017,01,23,12,29,8.30
2017,01,23,12,30,8.30
2017,01,23,12,31,8.40
2017,01,23,12,32,8.40
2017,01,23,12,33,8.50
2017,01,23,12,34,8.50
2017,01,23,12,35,8.60
2017,01,23,12,36,8.60
2017,01,23,12,37,8.60
2017,01,23,12,38,8.70
2017,01,23,12,39,8.70
2017,01,23,12,40,8.70
2017,01,23,12,41,8.70
2017,01,23,12,42,8.70
2017,01,23,12,43,8.80
2017,01,23,12,44,8.80
2017,01,23,12,45,8.80
2017,01,23,12,46,8.80
2017,01,23,12,47,8.80
2017,01,23,12,48,8.90
2017,01,23,12,49,8.90
2017,01,23,12,50,8.90
2017,01,23,12,51,8.90
2017,01,23,12,52,8.90
2017,01,23,12,53,9.00
2017,01,23,12,54,9.00
2017,01,23,12,55,9.00
2017,01,23,12,56,9.00
2017,01,23,12,57,9.00
2017,01,23,12,58,9.00
2017,01,23,12,59,9.00
2017,01,23,13,00,8.90
2017,01,23,13,01,8.90
2017,01,23,13,02,8.90
2017,01,23,13,03,8.90
2017,01,23,13,04,8.90
2017,01,23,13,05,8.90
2017,01,23,13,06,8.80
2017,01,23,13,07,8.80
2017,01,23,13,08,8.80
2017,01,23,13,09,8.80
2017,01,23,13,10,8.80
2017,01,23,13,11,8.70
2017,01,23,13,12,8.70
2017,01,23,13,13,8.70
2017,01,23,13,14,8.70
2017,01,23,13,15,8.70
2017,01,23,13,16,8.80
2017,01,23,13,17,8.80
2017,01,23,13,18,8.80
2017,01,23,13,19,8.80
2017,01,23,13,20,8.80
2017,01,23,13,21,8.80
2017,01,23,13,22,8.80
2017,01,23,13,23,8.80
2017,01,23,13,24,8.80
2017,01,23,13,25,8.80
2017,01,23,13,26,8.80
2017,01,23,13,27,8.80
2017,01,23,13,28,8.80
2017,01,23,14,35,9.30
2017,01,23,14,36,9.10
2017,01,23,14,37,9.00
2017,01,23,14,38,8.90
2017,01,23,14,39,8.80
2017,01,23,14,40,8.80
2017,01,23,14,41,8.80
2017,01,23,14,42,8.80
2017,01,23,14,43,8.70
2017,01,23,14,44,8.70
2017,01,23,14,45,8.70
2017,01,23,14,46,8.70
2017,01,23,14,47,8.70
2017,01,23,14,48,8.70
2017,01,23,14,49,8.70
2017,01,23,14,50,8.70
2017,01,23,14,51,8.70
2017,01,23,14,52,8.70
2017,01,23,14,53,8.70
2017,01,23,14,54,8.70
2017,01,23,14,55,8.70
2017,01,23,14,56,8.80
2017,01,23,14,57,8.80
2017,01,23,14,58,8.80
2017,01,23,14,59,8.80
2017,01,23,15,00,8.90
2017,01,23,15,01,8.90
2017,01,23,15,02,8.80
2017,01,23,15,03,8.80
2017,01,23,15,04,8.80
2017,01,23,15,05,8.80
2017,01,23,15,06,8.80
2017,01,23,15,07,8.70
2017,01,23,15,08,8.70
2017,01,23,15,09,8.60
2017,01,23,15,10,8.60
2017,01,23,15,11,8.60
2017,01,23,15,12,8.60
2017,01,23,15,13,8.60
2017,01,23,15,14,8.60
2017,01,23,15,15,8.60
2017,01,23,15,16,8.60
2017,01,23,15,17,8.60
2017,01,23,15,18,8.60
2017,01,23,15,19,8.60
2017,01,23,15,20,8.60
2017,01,23,15,21,8.60
2017,01,23,15,22,8.60
2017,01,23,15,23,8.60
2017,01,23,15,24,8.70
2017,01,23,15,25,8.60
2017,01,23,15,26,8.70
2017,01,23,15,27,8.70
2017,01,23,15,28,8.70
2017,01,23,15,29,8.70
2017,01,23,15,30,8.70
2017,01,23,15,31,8.70
2017,01,23,15,32,8.70
2017,01,23,15,33,8.70
2017,01,23,15,34,8.70
2017,01,23,15,35,8.70
2017,01,23,15,36,8.70
2017,01,23,15,37,8.70
2017,01,23,15,38,8.70
2017,01,23,15,39,8.70
2017,01,23,15,40,8.70
2017,01,23,15,41,8.70
2017,01,23,15,42,8.70
2017,01,23,15,43,8.70
2017,01,23,15,44,8.70
2017,01,23,15,45,8.70
2017,01,23,15,46,8.70
2017,01,23,15,47,8.70
2017,01,23,15,48,8.70
2017,01,23,15,49,8.70
2017,01,23,15,50,8.70
2017,01,23,15,51,8.60
2017,01,23,15,52,8.60
2017,01,23,15,53,8.60
2017,01,23,15,54,8.60
2017,01,23,15,55,8.60
2017,01,23,15,56,8.60
2017,01,23,15,57,8.60
2017,01,23,15,58,8.60
2017,01,23,15,59,8.60
2017,01,23,16,00,8.70
2017,01,23,16,01,8.60
2017,01,23,16,02,8.60
2017,01,23,16,03,8.60
2017,01,23,16,04,8.60
2017,01,23,16,05,8.60
2017,01,23,16,06,8.50
2017,01,23,16,07,8.50
2017,01,23,16,08,8.50
2017,01,23,16,09,8.50
2017,01,23,16,10,8.50
2017,01,23,16,11,8.50
2017,01,23,16,12,8.50
2017,01,23,16,13,8.50
2017,01,23,16,14,8.60
2017,01,23,16,15,8.60
2017,01,23,16,16,8.60
2017,01,23,16,17,8.60
2017,01,23,16,18,8.60
2017,01,23,16,19,8.60
2017,01,23,16,20,8.60
2017,01,23,16,21,8.60
2017,01,23,16,22,8.60
2017,01,23,16,23,8.60
2017,01,23,16,24,8.50
2017,01,23,16,25,8.50
2017,01,23,16,26,8.50
2017,01,23,16,27,8.40
2017,01,23,16,28,8.40
2017,01,23,16,29,8.40
2017,01,23,16,30,8.40
2017,01,23,16,31,8.40
2017,01,23,16,32,8.30
2017,01,23,16,33,8.30
2017,01,23,16,34,8.30
2017,01,23,16,35,8.20
2017,01,23,16,36,8.20
2017,01,23,16,37,8.10
2017,01,23,16,38,8.10
2017,01,23,16,39,8.00
2017,01,23,16,40,7.90
2017,01,23,16,41,7.90
2017,01,23,16,42,7.80
2017,01,23,16,43,7.70
2017,01,23,16,44,7.70
2017,01,23,16,45,7.60
2017,01,23,16,46,7.60
2017,01,23,16,47,7.50
2017,01,23,16,48,7.50
2017,01,23,16,49,7.40
2017,01,23,16,50,7.40
2017,01,23,16,51,7.30
2017,01,23,16,52,7.20
2017,01,23,16,53,7.10
2017,01,23,16,54,7.10
2017,01,23,16,55,7.00
2017,01,23,16,56,6.90
2017,01,23,16,57,6.90
2017,01,23,16,58,6.80
2017,01,23,16,59,6.80
2017,01,23,17,00,6.70
2017,01,23,17,01,6.70
2017,01,23,17,02,6.60
2017,01,23,17,03,6.50
2017,01,23,17,04,6.50
2017,01,23,17,05,6.50
2017,01,23,17,06,6.40
2017,01,23,17,07,6.40
2017,01,23,17,08,6.40
2017,01,23,17,09,6.40
2017,01,23,17,10,6.40
2017,01,23,17,11,6.30
2017,01,23,17,12,6.30
2017,01,23,17,13,6.30
2017,01,23,17,14,6.20
2017,01,23,17,15,6.20
2017,01,23,17,16,6.20
2017,01,23,17,17,6.10
2017,01,23,17,18,6.10
2017,01,23,17,19,6.10
2017,01,23,17,20,6.00
2017,01,23,17,21,6.00
2017,01,23,17,22,5.90
2017,01,23,17,23,5.90
2017,01,23,17,24,5.80
2017,01,23,17,25,5.80
2017,01,23,17,26,5.70
2017,01,23,17,27,5.60
2017,01,23,17,28,5.60
2017,01,23,17,29,5.50
2017,01,23,17,30,5.50
2017,01,23,17,31,5.40
2017,01,23,17,32,5.40
2017,01,23,17,33,5.40
2017,01,23,17,34,5.30
2017,01,23,17,35,5.30
2017,01,23,17,36,5.30
2017,01,23,17,37,5.30
2017,01,23,17,38,5.30
2017,01,23,17,39,5.20
2017,01,23,17,40,5.20
2017,01,23,17,41,5.10
2017,01,23,17,42,5.10
2017,01,23,17,43,5.10
2017,01,23,17,44,5.10
2017,01,23,17,45,5.20
2017,01,23,17,46,5.20
2017,01,23,17,47,5.10
2017,01,23,17,48,5.10
2017,01,23,17,49,5.10
2017,01,23,17,50,5.10
2017,01,23,17,51,5.00
2017,01,23,17,52,4.90
2017,01,23,17,53,4.90
2017,01,23,17,54,4.90
2017,01,23,17,55,4.90
2017,01,23,17,56,4.90
2017,01,23,17,57,4.90
2017,01,23,17,58,4.90
2017,01,23,17,59,4.80
2017,01,23,18,00,4.80
2017,01,23,18,01,4.80
2017,01,23,18,02,4.80
2017,01,23,18,03,4.80
2017,01,23,18,04,4.80
2017,01,23,18,05,4.80
2017,01,23,18,06,4.80
2017,01,23,18,07,4.80
2017,01,23,18,08,4.80
2017,01,23,18,09,4.90
2017,01,23,18,10,4.90
2017,01,23,18,11,4.90
2017,01,23,18,12,4.90
2017,01,23,18,13,4.90
2017,01,23,18,14,4.90
2017,01,23,18,15,4.90
2017,01,23,18,16,4.80
2017,01,23,18,17,4.70
2017,01,23,18,18,4.70
2017,01,23,18,19,4.60
2017,01,23,18,20,4.60
2017,01,23,18,21,4.60
2017,01,23,18,22,4.50
2017,01,23,18,23,4.50
2017,01,23,18,24,4.50
2017,01,23,18,25,4.60
2017,01,23,18,26,4.60
2017,01,23,18,27,4.60
2017,01,23,18,28,4.60
2017,01,23,18,29,4.60
2017,01,23,18,30,4.60
2017,01,23,18,31,4.50
2017,01,23,18,32,4.50
2017,01,23,18,33,4.50
2017,01,23,18,34,4.40
2017,01,23,18,35,4.40
2017,01,23,18,36,4.40
2017,01,23,18,37,4.40
2017,01,23,18,38,4.40
2017,01,23,18,39,4.40
2017,01,23,18,40,4.40
2017,01,23,18,41,4.40
2017,01,23,18,42,4.40
2017,01,23,18,43,4.40
2017,01,23,18,44,4.40
2017,01,23,18,45,4.40
2017,01,23,18,46,4.40
2017,01,23,18,47,4.40
2017,01,23,18,48,4.40
2017,01,23,18,49,4.40
2017,01,23,18,50,4.40
2017,01,23,18,51,4.40
2017,01,23,18,52,4.40
2017,01,23,18,53,4.30
2017,01,23,18,54,4.30
2017,01,23,18,55,4.30
2017,01,23,18,56,4.30
2017,01,23,18,57,4.20
2017,01,23,18,58,4.20
2017,01,23,18,59,4.20
2017,01,23,19,00,4.20
2017,01,23,19,01,4.20
2017,01,23,19,02,4.20
2017,01,23,19,03,4.20
2017,01,23,19,04,4.20
2017,01,23,19,05,4.20
2017,01,23,19,06,4.10
2017,01,23,19,07,4.10
2017,01,23,19,08,4.10
2017,01,23,19,09,4.10
2017,01,23,19,10,4.10
2017,01,23,19,11,4.00
2017,01,23,19,12,4.00
2017,01,23,19,13,4.00
2017,01,23,19,14,3.90
2017,01,23,19,15,3.90
2017,01,23,19,16,3.90
2017,01,23,19,17,3.90
2017,01,23,19,18,3.90
2017,01,23,19,19,3.90
2017,01,23,19,20,3.90
2017,01,23,19,21,3.90
2017,01,23,19,22,3.90
2017,01,23,19,23,3.90
2017,01,23,19,24,3.90
2017,01,23,19,25,3.90
2017,01,23,19,26,3.80
2017,01,23,19,27,3.80
2017,01,23,19,28,3.80
2017,01,23,19,29,3.80
2017,01,23,19,30,3.80
2017,01,23,19,31,3.80
2017,01,23,19,32,3.80
2017,01,23,19,33,3.80
2017,01,23,19,34,3.70
2017,01,23,19,35,3.70
2017,01,23,19,36,3.70
2017,01,23,19,37,3.70
2017,01,23,19,38,3.60
2017,01,23,19,39,3.60
2017,01,23,19,40,3.60
2017,01,23,19,41,3.60
2017,01,23,19,42,3.60
2017,01,23,19,43,3.60
2017,01,23,19,44,3.50
2017,01,23,19,45,3.50
2017,01,23,19,46,3.50
2017,01,23,19,47,3.50
2017,01,23,19,48,3.40
2017,01,23,19,49,3.40
2017,01,23,19,50,3.30
2017,01,23,19,51,3.30
2017,01,23,19,52,3.30
2017,01,23,19,53,3.30
2017,01,23,19,54,3.30
2017,01,23,19,55,3.30
2017,01,23,19,56,3.30
2017,01,23,19,57,3.30
2017,01,23,19,58,3.30
2017,01,23,19,59,3.30
2017,01,23,20,00,3.30
2017,01,23,20,01,3.30
2017,01,23,20,02,3.30
2017,01,23,20,03,3.30
2017,01,23,20,04,3.30
2017,01,23,20,05,3.30
2017,01,23,20,06,3.30
2017,01,23,20,07,3.20
2017,01,23,20,08,3.20
2017,01,23,20,09,3.20
2017,01,23,20,10,3.20
2017,01,23,20,11,3.20
2017,01,23,20,12,3.20
2017,01,23,20,13,3.20
2017,01,23,20,14,3.20
2017,01,23,20,15,3.10
2017,01,23,20,16,3.10
2017,01,23,20,17,3.10
2017,01,23,20,18,3.10
2017,01,23,20,19,3.10
2017,01,23,20,20,3.20
2017,01,23,20,21,3.20
2017,01,23,20,22,3.20
2017,01,23,20,23,3.20
2017,01,23,20,24,3.20
2017,01,23,20,25,3.20
2017,01,23,20,26,3.20
2017,01,23,20,27,3.20
2017,01,23,20,28,3.20
2017,01,23,20,29,3.10
2017,01,23,20,30,3.10
2017,01,23,20,31,3.10
2017,01,23,20,32,3.20
2017,01,23,20,33,3.20
2017,01,23,20,34,3.20
2017,01,23,20,35,3.20
2017,01,23,20,36,3.20
2017,01,23,20,37,3.20
2017,01,23,20,38,3.10
2017,01,23,20,39,3.10
2017,01,23,20,40,3.10
2017,01,23,20,41,3.10
2017,01,23,20,42,3.10
2017,01,23,20,43,3.00
2017,01,23,20,44,3.00
2017,01,23,20,45,3.00
2017,01,23,20,46,2.90
2017,01,23,20,47,3.00
2017,01,23,20,48,3.00
2017,01,23,20,49,3.00
2017,01,23,20,50,2.90
2017,01,23,20,51,2.90
2017,01,23,20,52,2.90
2017,01,23,20,53,2.90
2017,01,23,20,54,2.90
2017,01,23,20,55,2.90
2017,01,23,20,56,2.90
2017,01,23,20,57,2.90
2017,01,23,20,58,2.90
2017,01,23,20,59,2.80
2017,01,23,21,00,2.80
2017,01,23,21,01,2.80
2017,01,23,21,02,2.80
2017,01,23,21,03,2.80
2017,01,23,21,04,2.80
2017,01,23,21,05,2.70
2017,01,23,21,06,2.70
2017,01,23,21,07,2.70
2017,01,23,21,08,2.70
2017,01,23,21,09,2.70
2017,01,23,21,10,2.70
2017,01,23,21,11,2.70
2017,01,23,21,12,2.70
2017,01,23,21,13,2.70
2017,01,23,21,14,2.70
2017,01,23,21,15,2.70
2017,01,23,21,16,2.80
2017,01,23,21,17,2.70
2017,01,23,21,18,2.80
2017,01,23,21,19,2.80
2017,01,23,21,20,2.80
2017,01,23,21,21,2.80
2017,01,23,21,22,2.80
2017,01,23,21,23,2.80
2017,01,23,21,24,2.80
2017,01,23,21,25,2.80
2017,01,23,21,26,2.80
2017,01,23,21,27,2.70
2017,01,23,21,28,2.70
2017,01,23,21,29,2.70
2017,01,23,21,30,2.70
2017,01,23,21,31,2.70
2017,01,23,21,32,2.70
2017,01,23,21,33,2.70
2017,01,23,21,34,2.70
2017,01,23,21,35,2.70
2017,01,23,21,36,2.70
2017,01,23,21,37,2.70
2017,01,23,21,38,2.70
2017,01,23,21,39,2.80
2017,01,23,21,40,2.70
2017,01,23,21,41,2.70
2017,01,23,21,42,2.70
2017,01,23,21,43,2.70
2017,01,23,21,44,2.70
2017,01,23,21,45,2.70
2017,01,23,21,46,2.60
2017,01,23,21,47,2.60
2017,01,23,21,48,2.60
2017,01,23,21,49,2.50
2017,01,23,21,50,2.50
2017,01,23,21,51,2.50
2017,01,23,21,52,2.40
2017,01,23,21,53,2.40
2017,01,23,21,54,2.40
2017,01,23,21,55,2.40
2017,01,23,21,56,2.40
2017,01,23,21,57,2.40
2017,01,23,21,58,2.30
2017,01,23,21,59,2.30
2017,01,23,22,00,2.30
2017,01,23,22,01,2.30
2017,01,23,22,02,2.30
2017,01,23,22,03,2.30
2017,01,23,22,04,2.30
2017,01,23,22,05,2.30
2017,01,23,22,06,2.30
2017,01,23,22,07,2.30
2017,01,23,22,08,2.30
2017,01,23,22,09,2.30
2017,01,23,22,10,2.30
2017,01,23,22,11,2.30
2017,01,23,22,12,2.30
2017,01,23,22,13,2.30
2017,01,23,22,14,2.30
2017,01,23,22,15,2.30
2017,01,23,22,16,2.30
2017,01,23,22,17,2.30
2017,01,23,22,18,2.30
2017,01,23,22,19,2.30
2017,01,23,22,20,2.30
2017,01,23,22,21,2.30
2017,01,23,22,22,2.30
2017,01,23,22,23,2.30
2017,01,23,22,24,2.30
2017,01,23,22,25,2.30
2017,01,23,22,26,2.30
2017,01,23,22,27,2.30
2017,01,23,22,28,2.30
2017,01,23,22,29,2.30
2017,01,23,22,30,2.30
2017,01,23,22,31,2.30
2017,01,23,22,32,2.30
2017,01,23,22,33,2.30
2017,01,23,22,34,2.30
2017,01,23,22,35,2.30
2017,01,23,22,36,2.30
2017,01,23,22,37,2.30
2017,01,23,22,38,2.30
2017,01,23,22,39,2.30
2017,01,23,22,40,2.30
2017,01,23,22,41,2.20
2017,01,23,22,42,2.20
2017,01,23,22,43,2.20
2017,01,23,22,44,2.20
2017,01,23,22,45,2.20
2017,01,23,22,46,2.20
2017,01,23,22,47,2.20
2017,01,23,22,48,2.20
2017,01,23,22,49,2.20
2017,01,23,22,50,2.20
2017,01,23,22,51,2.20
2017,01,23,22,52,2.10
2017,01,23,22,53,2.10
2017,01,23,22,54,2.10
2017,01,23,22,55,2.10
2017,01,23,22,56,2.10
2017,01,23,22,57,2.10
2017,01,23,22,58,2.10
2017,01,23,22,59,2.10
2017,01,23,23,00,2.00
2017,01,23,23,01,2.00
2017,01,23,23,02,2.10
2017,01,23,23,03,2.10
2017,01,23,23,04,2.10
2017,01,23,23,05,2.10
2017,01,23,23,06,2.10
2017,01,23,23,07,2.10
2017,01,23,23,08,2.10
2017,01,23,23,09,2.10
2017,01,23,23,10,2.10
2017,01,23,23,11,2.10
2017,01,23,23,12,2.10
2017,01,23,23,13,2.10
2017,01,23,23,14,2.10
2017,01,23,23,15,2.10
2017,01,23,23,16,2.10
2017,01,23,23,17,2.10
2017,01,23,23,18,2.10
2017,01,23,23,19,2.10
2017,01,23,23,20,2.10
2017,01,23,23,21,2.10
2017,01,23,23,22,2.00
2017,01,23,23,23,2.00
2017,01,23,23,24,2.00
2017,01,23,23,25,2.00
2017,01,23,23,26,2.00
2017,01,23,23,27,2.00
2017,01,23,23,28,2.00
2017,01,23,23,29,2.00
2017,01,23,23,30,1.90
2017,01,23,23,31,1.90
2017,01,23,23,32,1.90
2017,01,23,23,33,1.80
2017,01,23,23,34,1.80
2017,01,23,23,35,1.80
2017,01,23,23,36,1.80
2017,01,23,23,37,1.70
2017,01,23,23,38,1.70
2017,01,23,23,39,1.70
2017,01,23,23,40,1.70
2017,01,23,23,41,1.70
2017,01,23,23,42,1.70
2017,01,23,23,43,1.70
2017,01,23,23,44,1.70
2017,01,23,23,45,1.70
2017,01,23,23,46,1.70
2017,01,23,23,47,1.70
2017,01,23,23,48,1.70
2017,01,23,23,49,1.70
2017,01,23,23,50,1.70
2017,01,23,23,51,1.70
2017,01,23,23,52,1.70
2017,01,23,23,53,1.80
2017,01,23,23,54,1.80
2017,01,23,23,55,1.80
2017,01,23,23,56,1.80
2017,01,23,23,57,1.80
2017,01,23,23,58,1.80
2017,01,23,23,59,1.80
